This is the latest recevied weather packets stored in our database for station/object JH5HTX-13. If no packets are shown the sender has not sent any weather packets the latest 10 day(s).
| Time | Temp. | Humidity | Pressure | Rain* | Wind** | Luminosity | Snow |
|---|---|---|---|---|---|---|---|
| 1777694373 | 23.33° C | 53% | 1011.7 hPa | 0 mm | - | - | - |
| 1777693473 | 23.33° C | 55% | 1011.7 hPa | 0 mm | - | - | - |
| 1777692573 | 22.78° C | 55% | 1011.8 hPa | 0 mm | - | - | - |
| 1777691673 | 22.78° C | 56% | 1012 hPa | 0 mm | - | - | - |
| 1777690773 | 22.78° C | 58% | 1012 hPa | 0 mm | - | - | - |
| 1777689873 | 22.22° C | 59% | 1012.1 hPa | 0 mm | - | - | - |
| 1777688973 | 21.67° C | 60% | 1012.2 hPa | 0 mm | - | - | - |
| 1777688072 | 21.67° C | 62% | 1012.5 hPa | 0 mm | - | - | - |
| 1777687173 | 21.11° C | 64% | 1012.5 hPa | 0 mm | - | - | - |
| 1777686272 | 21.11° C | 64% | 1012.5 hPa | 0 mm | - | - | - |
| 1777685372 | 21.11° C | 64% | 1012.4 hPa | 0 mm | - | - | - |
| 1777684472 | 20.56° C | 64% | 1012.3 hPa | 0 mm | - | - | - |
| 1777683572 | 20.56° C | 64% | 1012.3 hPa | 0 mm | - | - | - |
| 1777682672 | 20° C | 68% | 1012.3 hPa | 0 mm | - | - | - |
| 1777681772 | 19.44° C | 70% | 1012.3 hPa | 0 mm | - | - | - |
| 1777680872 | 19.44° C | 71% | 1012.2 hPa | 0 mm | - | - | - |
| 1777679972 | 18.89° C | 70% | 1012.3 hPa | 0 mm | - | - | - |
| 1777679072 | 18.89° C | 70% | 1012.2 hPa | 0 mm | - | - | - |
| 1777678171 | 18.33° C | 69% | 1012.1 hPa | 0 mm | - | - | - |
| 1777677271 | 18.33° C | 71% | 1012 hPa | 0 mm | - | - | - |
| 1777676371 | 17.78° C | 71% | 1012.1 hPa | 0 mm | - | - | - |
| 1777675471 | 17.78° C | 71% | 1011.9 hPa | 0 mm | - | - | - |
| 1777674572 | 17.78° C | 73% | 1011.9 hPa | 0 mm | - | - | - |
| 1777673671 | 16.67° C | 73% | 1011.6 hPa | 0 mm | - | - | - |
| 1777672771 | 16.11° C | 76% | 1011.4 hPa | 0 mm | - | - | - |
* Rain latest hour (hover to see other rain measurements)
** Current wind speed in m/s (hover to see current wind gust speed)